EZY31CL EGKK-EHAM

Flight info

Callsign EZY31CL
Flight time 0h 48m
Altitude 25000
Route FRANE M604 GASBA M197 REDFA
Aircraft A21N/M-SDE2E3FGHIJ1RWXYZ/LB1G1

Departure

Time 2026-05-05 12:02
Airport London Gatwick Airport (EGKK)

Arrival

Time 2026-05-05 12:51
Airport Amsterdam Airport Schiphol (EHAM)
Time Latitude Longitude Altitude Speed Heading
2026-05-05 11:22 51.16158 -0.18317 200 ft 0 kts 256°
2026-05-05 11:44 51.16159 -0.18314 200 ft 2 kts 257°
2026-05-05 11:45 51.16163 -0.18291 200 ft 2 kts 256°
2026-05-05 11:45 51.16166 -0.18268 200 ft 2 kts 257°
2026-05-05 11:45 51.16169 -0.18245 200 ft 2 kts 256°
2026-05-05 11:45 51.16172 -0.18230 200 ft 1 kts 257°
2026-05-05 11:46 51.16179 -0.18210 200 ft 2 kts 212°
2026-05-05 11:46 51.16193 -0.18203 200 ft 1 kts 176°
2026-05-05 11:46 51.16199 -0.18205 200 ft 1 kts 163°
2026-05-05 11:46 51.16203 -0.18206 200 ft 0 kts 167°
2026-05-05 11:50 51.16198 -0.18205 200 ft 1 kts 167°
2026-05-05 11:50 51.16185 -0.18199 200 ft 1 kts 165°
2026-05-05 11:50 51.16170 -0.18192 200 ft 2 kts 163°
2026-05-05 11:50 51.16148 -0.18182 200 ft 4 kts 164°
2026-05-05 11:51 51.16117 -0.18172 200 ft 5 kts 168°
2026-05-05 11:51 51.16077 -0.18158 200 ft 7 kts 169°
2026-05-05 11:51 51.16007 -0.18139 200 ft 12 kts 169°
2026-05-05 11:51 51.15916 -0.18104 200 ft 13 kts 165°
2026-05-05 11:52 51.15832 -0.18074 200 ft 10 kts 166°
2026-05-05 11:52 51.15770 -0.18052 200 ft 9 kts 168°
2026-05-05 11:52 51.15705 -0.18043 200 ft 9 kts 205°
2026-05-05 11:52 51.15676 -0.18138 200 ft 10 kts 258°
2026-05-05 11:53 51.15660 -0.18253 200 ft 10 kts 259°
2026-05-05 11:53 51.15624 -0.18349 200 ft 10 kts 193°
2026-05-05 11:53 51.15546 -0.18332 200 ft 11 kts 168°
2026-05-05 11:53 51.15467 -0.18297 200 ft 11 kts 171°
2026-05-05 11:54 51.15385 -0.18275 200 ft 12 kts 171°
2026-05-05 11:54 51.15301 -0.18246 200 ft 12 kts 167°
2026-05-05 11:54 51.15217 -0.18224 200 ft 12 kts 190°
2026-05-05 11:54 51.15183 -0.18327 200 ft 11 kts 257°
2026-05-05 11:55 51.15168 -0.18461 200 ft 13 kts 259°
2026-05-05 11:55 51.15150 -0.18612 200 ft 14 kts 260°
2026-05-05 11:55 51.15124 -0.18773 200 ft 15 kts 258°
2026-05-05 11:55 51.15100 -0.18951 200 ft 16 kts 256°
2026-05-05 11:56 51.15076 -0.19137 200 ft 17 kts 257°
2026-05-05 11:56 51.15049 -0.19333 200 ft 18 kts 259°
2026-05-05 11:56 51.15019 -0.19536 200 ft 19 kts 256°
2026-05-05 11:56 51.14996 -0.19738 200 ft 18 kts 256°
2026-05-05 11:57 51.14966 -0.19929 200 ft 17 kts 257°
2026-05-05 11:57 51.14939 -0.20118 200 ft 18 kts 258°
2026-05-05 11:57 51.14911 -0.20328 200 ft 19 kts 257°
2026-05-05 11:57 51.14882 -0.20537 200 ft 19 kts 257°
2026-05-05 11:58 51.14854 -0.20739 200 ft 18 kts 258°
2026-05-05 11:58 51.14827 -0.20939 200 ft 18 kts 257°
2026-05-05 11:58 51.14798 -0.21130 200 ft 17 kts 248°
2026-05-05 11:58 51.14767 -0.21306 200 ft 13 kts 257°
2026-05-05 11:59 51.14713 -0.21400 200 ft 11 kts 177°
2026-05-05 11:59 51.14660 -0.21354 200 ft 5 kts 141°
2026-05-05 11:59 51.14644 -0.21339 200 ft 0 kts 160°
2026-05-05 12:01 51.14610 -0.21325 200 ft 11 kts 167°
2026-05-05 12:01 51.14526 -0.21232 200 ft 16 kts 110°
2026-05-05 12:01 51.14535 -0.21057 200 ft 15 kts 79°
2026-05-05 12:02 51.14581 -0.20745 200 ft 62 kts 78°
2026-05-05 12:02 51.14727 -0.19642 200 ft 137 kts 76°
2026-05-05 12:02 51.14960 -0.17908 444 ft 173 kts 76°
2026-05-05 12:02 51.15213 -0.16045 1307 ft 172 kts 73°
2026-05-05 12:03 51.15458 -0.14286 2218 ft 169 kts 73°
2026-05-05 12:03 51.15728 -0.12414 2823 ft 182 kts 74°
2026-05-05 12:03 51.16022 -0.10353 3326 ft 198 kts 75°
2026-05-05 12:03 51.16332 -0.08140 3798 ft 217 kts 75°
2026-05-05 12:04 51.16664 -0.05676 4220 ft 240 kts 78°
2026-05-05 12:04 51.16862 -0.02929 4733 ft 258 kts 86°
2026-05-05 12:04 51.16865 -0.00062 4968 ft 264 kts 90°
2026-05-05 12:04 51.16805 0.02857 5208 ft 264 kts 90°
2026-05-05 12:05 51.16740 0.05807 5656 ft 267 kts 91°
2026-05-05 12:05 51.16675 0.08762 6106 ft 269 kts 91°
2026-05-05 12:05 51.16603 0.11744 6557 ft 271 kts 91°
2026-05-05 12:05 51.16623 0.14729 6993 ft 273 kts 79°
2026-05-05 12:06 51.17250 0.17559 7477 ft 274 kts 64°
2026-05-05 12:06 51.18110 0.20265 7987 ft 276 kts 62°
2026-05-05 12:06 51.19006 0.22937 8474 ft 278 kts 61°
2026-05-05 12:06 51.19922 0.25646 8979 ft 280 kts 61°
2026-05-05 12:07 51.20851 0.28392 9478 ft 283 kts 61°
2026-05-05 12:07 51.21778 0.31127 9970 ft 285 kts 61°
2026-05-05 12:07 51.22742 0.33983 10507 ft 297 kts 61°
2026-05-05 12:07 51.23739 0.36937 11018 ft 310 kts 60°
2026-05-05 12:08 51.25073 0.39716 11508 ft 323 kts 40°
2026-05-05 12:08 51.27004 0.41586 12023 ft 334 kts 25°
2026-05-05 12:08 51.29194 0.43041 12512 ft 344 kts 21°
2026-05-05 12:08 51.31432 0.44428 12868 ft 348 kts 21°
2026-05-05 12:09 51.33688 0.45809 12926 ft 349 kts 21°
2026-05-05 12:09 51.35966 0.47194 12909 ft 348 kts 21°
2026-05-05 12:09 51.38197 0.48551 12927 ft 348 kts 21°
2026-05-05 12:09 51.40478 0.49945 13177 ft 348 kts 21°
2026-05-05 12:10 51.42745 0.51333 13682 ft 351 kts 21°
2026-05-05 12:10 51.45026 0.52727 14179 ft 354 kts 21°
2026-05-05 12:10 51.47327 0.54135 14681 ft 358 kts 21°
2026-05-05 12:10 51.49661 0.55572 15188 ft 362 kts 21°
2026-05-05 12:11 51.52007 0.57013 15697 ft 366 kts 21°
2026-05-05 12:11 51.54400 0.58480 16277 ft 371 kts 21°
2026-05-05 12:11 51.56817 0.59962 16861 ft 375 kts 21°
2026-05-05 12:11 51.59254 0.61461 17439 ft 380 kts 21°
2026-05-05 12:12 51.61757 0.62998 18030 ft 385 kts 21°
2026-05-05 12:12 51.64252 0.64532 18614 ft 389 kts 21°
2026-05-05 12:12 51.66791 0.66100 19207 ft 393 kts 21°
2026-05-05 12:12 51.69365 0.67699 19811 ft 397 kts 21°
2026-05-05 12:13 51.71934 0.69298 20395 ft 400 kts 21°
2026-05-05 12:13 51.74538 0.70922 21002 ft 400 kts 21°
2026-05-05 12:13 51.77092 0.72516 21596 ft 400 kts 21°
2026-05-05 12:13 51.79676 0.74130 22191 ft 399 kts 21°
2026-05-05 12:14 51.82271 0.75753 22724 ft 399 kts 21°
2026-05-05 12:14 51.84854 0.77368 22939 ft 399 kts 21°
2026-05-05 12:14 51.87446 0.78990 22950 ft 400 kts 21°
2026-05-05 12:14 51.90013 0.80598 22946 ft 399 kts 21°
2026-05-05 12:15 51.92619 0.82237 22944 ft 400 kts 21°
2026-05-05 12:15 51.95211 0.83875 22942 ft 400 kts 21°
2026-05-05 12:15 51.97812 0.85520 22938 ft 400 kts 21°
2026-05-05 12:15 52.00375 0.87142 22937 ft 400 kts 21°
2026-05-05 12:16 52.02913 0.88954 22939 ft 400 kts 31°
2026-05-05 12:16 52.05024 0.91851 23414 ft 398 kts 51°
2026-05-05 12:16 52.06452 0.95646 24030 ft 395 kts 69°
2026-05-05 12:16 52.07325 0.99825 24646 ft 394 kts 75°
2026-05-05 12:17 52.08085 1.04146 24942 ft 402 kts 76°
2026-05-05 12:17 52.08834 1.08546 24943 ft 405 kts 76°
2026-05-05 12:17 52.09581 1.12990 24948 ft 406 kts 76°
2026-05-05 12:17 52.10317 1.17376 24940 ft 406 kts 76°
2026-05-05 12:18 52.11060 1.21822 24942 ft 406 kts 76°
2026-05-05 12:18 52.11768 1.26070 24951 ft 406 kts 76°
2026-05-05 12:18 52.12501 1.30486 24952 ft 406 kts 76°
2026-05-05 12:18 52.13237 1.34914 24951 ft 406 kts 76°
2026-05-05 12:19 52.13972 1.39350 24957 ft 406 kts 76°
2026-05-05 12:19 52.14706 1.43785 24963 ft 407 kts 76°
2026-05-05 12:19 52.15432 1.48169 24958 ft 407 kts 76°
2026-05-05 12:19 52.16164 1.52615 24959 ft 407 kts 76°
2026-05-05 12:20 52.16900 1.57095 24957 ft 407 kts 76°
2026-05-05 12:20 52.17628 1.61530 24958 ft 407 kts 76°
2026-05-05 12:20 52.18353 1.65949 24960 ft 407 kts 77°
2026-05-05 12:20 52.19084 1.70426 24963 ft 407 kts 77°
2026-05-05 12:21 52.19803 1.74842 24963 ft 407 kts 77°
2026-05-05 12:21 52.20530 1.79321 24962 ft 407 kts 77°
2026-05-05 12:21 52.21257 1.83783 24955 ft 408 kts 77°
2026-05-05 12:21 52.21954 1.88235 24959 ft 407 kts 77°
2026-05-05 12:22 52.22642 1.92698 24965 ft 408 kts 77°
2026-05-05 12:22 52.23325 1.97145 24958 ft 408 kts 77°
2026-05-05 12:22 52.24017 2.01649 24962 ft 408 kts 77°
2026-05-05 12:22 52.24697 2.06074 24964 ft 408 kts 77°
2026-05-05 12:23 52.25393 2.10602 24960 ft 409 kts 77°
2026-05-05 12:23 52.26075 2.15047 24964 ft 409 kts 77°
2026-05-05 12:23 52.26769 2.19579 24957 ft 408 kts 77°
2026-05-05 12:23 52.27455 2.24074 24960 ft 408 kts 77°
2026-05-05 12:24 52.28139 2.28568 24958 ft 408 kts 77°
2026-05-05 12:24 52.28817 2.33037 24957 ft 408 kts 77°
2026-05-05 12:24 52.29493 2.37508 24955 ft 408 kts 77°
2026-05-05 12:24 52.30172 2.42002 24966 ft 408 kts 77°
2026-05-05 12:25 52.30848 2.46501 24949 ft 408 kts 77°
2026-05-05 12:25 52.31524 2.50999 24958 ft 408 kts 77°
2026-05-05 12:25 52.32198 2.55499 24956 ft 409 kts 77°
2026-05-05 12:25 52.32870 2.60001 24947 ft 409 kts 77°
2026-05-05 12:26 52.33539 2.64500 24808 ft 411 kts 77°
2026-05-05 12:26 52.34213 2.69048 24051 ft 417 kts 78°
2026-05-05 12:26 52.34892 2.73653 23344 ft 418 kts 77°
2026-05-05 12:26 52.35047 2.74701 23201 ft 418 kts 77°
2026-05-05 12:27 52.35419 2.77223 22852 ft 418 kts 77°
2026-05-05 12:27 52.36101 2.81851 22196 ft 416 kts 77°
2026-05-05 12:27 52.36769 2.86392 21570 ft 410 kts 78°
2026-05-05 12:27 52.37426 2.90875 20978 ft 402 kts 78°
2026-05-05 12:28 52.38073 2.95294 20369 ft 396 kts 78°
2026-05-05 12:28 52.38694 2.99567 19781 ft 390 kts 78°
2026-05-05 12:28 52.39315 3.03845 19296 ft 383 kts 78°
2026-05-05 12:28 52.39925 3.08067 18839 ft 379 kts 78°
2026-05-05 12:29 52.40528 3.12249 18368 ft 377 kts 77°
2026-05-05 12:29 52.41121 3.16376 17920 ft 375 kts 77°
2026-05-05 12:29 52.41716 3.20529 17451 ft 374 kts 77°
2026-05-05 12:29 52.42309 3.24674 16983 ft 372 kts 77°
2026-05-05 12:30 52.42890 3.28748 16540 ft 370 kts 77°
2026-05-05 12:30 52.43473 3.32845 16084 ft 369 kts 76°
2026-05-05 12:30 52.44046 3.36891 15623 ft 367 kts 76°
2026-05-05 12:30 52.44329 3.38887 15393 ft 366 kts 76°
2026-05-05 12:31 52.44905 3.42955 14943 ft 364 kts 76°
2026-05-05 12:31 52.45487 3.47006 14484 ft 362 kts 75°
2026-05-05 12:31 52.46063 3.51002 14034 ft 360 kts 75°
2026-05-05 12:31 52.46637 3.54987 13584 ft 358 kts 75°
2026-05-05 12:32 52.47212 3.58983 13123 ft 356 kts 75°
2026-05-05 12:32 52.47779 3.62940 12655 ft 354 kts 75°
2026-05-05 12:32 52.48329 3.66796 12207 ft 352 kts 76°
2026-05-05 12:32 52.48885 3.70704 11745 ft 350 kts 76°
2026-05-05 12:33 52.49435 3.74586 11278 ft 348 kts 76°
2026-05-05 12:33 52.49977 3.78420 10825 ft 345 kts 76°
2026-05-05 12:33 52.50511 3.82208 10546 ft 336 kts 76°
2026-05-05 12:33 52.51025 3.85866 10394 ft 324 kts 76°
2026-05-05 12:34 52.51516 3.89376 10239 ft 312 kts 76°
2026-05-05 12:34 52.51994 3.92781 10083 ft 300 kts 76°
2026-05-05 12:34 52.52293 3.96071 9931 ft 290 kts 90°
2026-05-05 12:34 52.51967 3.99300 9882 ft 289 kts 108°
2026-05-05 12:35 52.51246 4.02398 9919 ft 292 kts 111°
2026-05-05 12:35 52.50479 4.05465 9935 ft 292 kts 111°
2026-05-05 12:35 52.49705 4.08545 9919 ft 292 kts 111°
2026-05-05 12:35 52.48930 4.11655 9942 ft 293 kts 111°
2026-05-05 12:36 52.48165 4.14751 9943 ft 293 kts 111°
2026-05-05 12:36 52.47411 4.17808 9914 ft 292 kts 111°
2026-05-05 12:36 52.46649 4.20900 9920 ft 291 kts 111°
2026-05-05 12:36 52.45892 4.23977 9915 ft 292 kts 111°
2026-05-05 12:37 52.45139 4.27038 9932 ft 293 kts 111°
2026-05-05 12:37 52.44374 4.30147 9940 ft 293 kts 111°
2026-05-05 12:37 52.43574 4.33214 9914 ft 293 kts 118°
2026-05-05 12:37 52.42245 4.35755 9905 ft 294 kts 142°
2026-05-05 12:38 52.40559 4.37645 9875 ft 292 kts 147°
2026-05-05 12:38 52.38855 4.39348 9566 ft 290 kts 148°
2026-05-05 12:38 52.37111 4.41066 9147 ft 290 kts 148°
2026-05-05 12:38 52.35401 4.42763 8765 ft 289 kts 147°
2026-05-05 12:39 52.33684 4.44483 8377 ft 286 kts 147°
2026-05-05 12:39 52.32009 4.46171 8036 ft 283 kts 147°
2026-05-05 12:39 52.30360 4.47839 7624 ft 274 kts 147°
2026-05-05 12:39 52.28743 4.49474 7107 ft 268 kts 147°
2026-05-05 12:40 52.27188 4.51037 6782 ft 262 kts 147°
2026-05-05 12:40 52.25659 4.52575 6534 ft 257 kts 147°
2026-05-05 12:40 52.24135 4.54109 6246 ft 253 kts 147°
2026-05-05 12:40 52.22656 4.55596 5974 ft 249 kts 146°
2026-05-05 12:41 52.21122 4.56864 5646 ft 248 kts 166°
2026-05-05 12:41 52.19425 4.56729 5271 ft 248 kts 200°
2026-05-05 12:41 52.18039 4.55137 4909 ft 247 kts 233°
2026-05-05 12:41 52.17361 4.52620 4527 ft 244 kts 265°
2026-05-05 12:42 52.17559 4.49965 4237 ft 235 kts 296°
2026-05-05 12:42 52.18489 4.47892 3978 ft 223 kts 325°
2026-05-05 12:42 52.19772 4.46566 3734 ft 216 kts 333°
2026-05-05 12:42 52.21055 4.45342 3456 ft 213 kts 333°
2026-05-05 12:43 52.22329 4.44108 3142 ft 212 kts 332°
2026-05-05 12:43 52.23578 4.42881 2832 ft 212 kts 332°
2026-05-05 12:43 52.24838 4.41639 2529 ft 210 kts 335°
2026-05-05 12:43 52.26203 4.40982 2201 ft 203 kts
2026-05-05 12:44 52.27539 4.41451 2039 ft 196 kts 27°
2026-05-05 12:44 52.28615 4.42808 2006 ft 197 kts 51°
2026-05-05 12:44 52.29244 4.44803 1988 ft 200 kts 74°
2026-05-05 12:44 52.29287 4.47037 2039 ft 194 kts 96°
2026-05-05 12:45 52.28779 4.49000 2001 ft 181 kts 119°
2026-05-05 12:45 52.27939 4.50337 1967 ft 163 kts 137°
2026-05-05 12:45 52.26996 4.51336 1962 ft 161 kts 141°
2026-05-05 12:45 52.26031 4.52291 1970 ft 161 kts 142°
2026-05-05 12:46 52.25074 4.53233 1967 ft 160 kts 142°
2026-05-05 12:46 52.24125 4.54169 1964 ft 160 kts 142°
2026-05-05 12:46 52.23173 4.55116 1967 ft 160 kts 142°
2026-05-05 12:46 52.22216 4.56070 1969 ft 160 kts 142°
2026-05-05 12:47 52.21412 4.57220 1941 ft 150 kts 110°
2026-05-05 12:47 52.21396 4.58796 1948 ft 141 kts 58°
2026-05-05 12:47 52.22041 4.59942 1985 ft 136 kts 39°
2026-05-05 12:47 52.22779 4.60908 1937 ft 134 kts 37°
2026-05-05 12:48 52.23504 4.61820 1761 ft 133 kts 37°
2026-05-05 12:48 52.24213 4.62772 1592 ft 132 kts 41°
2026-05-05 12:48 52.24859 4.63861 1424 ft 132 kts 48°
2026-05-05 12:48 52.25426 4.65021 1259 ft 132 kts 51°
2026-05-05 12:49 52.25990 4.66226 1085 ft 131 kts 52°
2026-05-05 12:49 52.26510 4.67445 916 ft 131 kts 57°
2026-05-05 12:49 52.26992 4.68695 740 ft 131 kts 57°
2026-05-05 12:49 52.27467 4.69950 560 ft 131 kts 56°
2026-05-05 12:50 52.27944 4.71220 397 ft 131 kts 58°
2026-05-05 12:50 52.28431 4.72511 260 ft 136 kts 57°
2026-05-05 12:50 52.28934 4.73774 56 ft 129 kts 57°
2026-05-05 12:50 52.29376 4.74926 0 ft 103 kts 58°
2026-05-05 12:51 52.29669 4.75684 0 ft 60 kts 59°
2026-05-05 12:51 52.29856 4.76180 0 ft 33 kts 57°
2026-05-05 12:51 52.29977 4.76474 0 ft 29 kts 44°
2026-05-05 12:51 52.30102 4.76603 0 ft 12 kts 27°
2026-05-05 12:52 52.30157 4.76649 0 ft 0 kts 29°
2026-05-05 12:53 52.30158 4.76651 0 ft 1 kts 29°
2026-05-05 12:53 52.30180 4.76669 0 ft 5 kts 28°
2026-05-05 12:53 52.30222 4.76704 0 ft 7 kts 26°
2026-05-05 12:53 52.30269 4.76742 0 ft 7 kts 35°
2026-05-05 12:54 52.30346 4.76910 0 ft 14 kts 61°
2026-05-05 12:54 52.30408 4.77069 0 ft 18 kts 58°
2026-05-05 12:54 52.30474 4.77245 0 ft 18 kts 58°
2026-05-05 12:55 52.30545 4.77431 0 ft 15 kts 58°
2026-05-05 12:55 52.30628 4.77497 0 ft 14 kts 330°
2026-05-05 12:55 52.30722 4.77458 0 ft 14 kts
2026-05-05 12:55 52.30829 4.77466 0 ft 15 kts
2026-05-05 12:56 52.30936 4.77477 0 ft 15 kts
2026-05-05 12:56 52.31045 4.77486 0 ft 15 kts
2026-05-05 12:56 52.31159 4.77498 0 ft 18 kts
2026-05-05 12:56 52.31279 4.77469 0 ft 17 kts 332°
2026-05-05 12:57 52.31375 4.77359 0 ft 16 kts 310°
2026-05-05 12:57 52.31450 4.77212 0 ft 16 kts 310°
2026-05-05 12:57 52.31482 4.77035 0 ft 17 kts 268°
2026-05-05 12:57 52.31474 4.76836 0 ft 18 kts 267°
2026-05-05 12:58 52.31467 4.76624 0 ft 18 kts 268°
2026-05-05 12:58 52.31461 4.76415 0 ft 18 kts 267°
2026-05-05 12:58 52.31454 4.76207 0 ft 18 kts 269°
2026-05-05 12:58 52.31447 4.76004 0 ft 17 kts 266°
2026-05-05 12:59 52.31440 4.75800 0 ft 18 kts 266°
2026-05-05 12:59 52.31430 4.75590 0 ft 18 kts 268°
2026-05-05 12:59 52.31416 4.75441 0 ft 6 kts 203°
2026-05-05 13:00 52.31293 4.75451 0 ft 9 kts 177°
2026-05-05 13:00 52.31223 4.75457 0 ft 10 kts 177°
2026-05-05 13:01 52.31154 4.75580 0 ft 4 kts 86°
2026-05-05 13:01 52.31155 4.75603 0 ft 0 kts 86°
2026-05-05 13:01 52.31155 4.75610 0 ft 0 kts 87°